TimeEST,TemperatureF,Dew PointF,Humidity,Sea Level PressureIn,VisibilityMPH,Wind Direction,Wind SpeedMPH,Gust SpeedMPH,PrecipitationIn,Events,Conditions,WindDirDegrees,DateUTC
12:56 AM,10.0,5.0,80,30.19,-9999.0,SSW,5.8,-,N/A,,Unknown,200,2013-03-05 05:56:00
1:56 AM,8.1,3.0,80,30.21,-9999.0,South,9.2,-,N/A,,Unknown,180,2013-03-05 06:56:00
2:56 AM,7.0,3.0,84,30.21,-9999.0,South,6.9,-,N/A,,Unknown,190,2013-03-05 07:56:00
3:56 AM,6.1,1.0,80,30.20,-9999.0,South,3.5,-,N/A,,Unknown,190,2013-03-05 08:56:00
4:56 AM,5.0,-0.0,80,30.20,-9999.0,South,3.5,-,N/A,,Unknown,170,2013-03-05 09:56:00
5:56 AM,5.0,-0.0,80,30.20,-9999.0,Calm,Calm,-,N/A,,Unknown,0,2013-03-05 10:56:00
6:56 AM,3.9,-0.9,80,30.20,-9999.0,SSW,4.6,-,N/A,,Unknown,200,2013-03-05 11:56:00
7:56 AM,5.0,-0.0,80,30.20,-9999.0,Calm,Calm,-,N/A,,Unknown,0,2013-03-05 12:56:00
8:56 AM,12.0,7.0,80,30.19,-9999.0,Calm,Calm,-,N/A,,Unknown,0,2013-03-05 13:56:00
9:56 AM,21.9,12.0,66,30.17,-9999.0,Calm,Calm,-,N/A,,Unknown,0,2013-03-05 14:56:00
10:56 AM,25.0,15.1,66,30.16,-9999.0,Calm,Calm,-,N/A,,Unknown,0,2013-03-05 15:56:00
11:56 AM,27.0,16.0,63,30.14,-9999.0,North,8.1,-,N/A,,Unknown,350,2013-03-05 16:56:00
12:56 PM,28.0,19.9,72,30.14,-9999.0,NNE,10.4,-,N/A,,Unknown,30,2013-03-05 17:56:00
1:56 PM,27.0,19.9,75,30.13,-9999.0,NNE,15.0,-,N/A,,Unknown,30,2013-03-05 18:56:00
2:56 PM,26.1,19.0,75,30.12,-9999.0,NNE,17.3,-,N/A,,Unknown,30,2013-03-05 19:56:00
3:56 PM,26.1,19.0,75,30.13,-9999.0,NNE,16.1,-,N/A,,Unknown,30,2013-03-05 20:56:00
4:56 PM,26.1,19.0,75,30.13,-9999.0,North,16.1,-,N/A,,Unknown,10,2013-03-05 21:56:00
5:56 PM,26.1,19.0,75,30.14,-9999.0,NNE,11.5,-,N/A,,Unknown,30,2013-03-05 22:56:00
6:56 PM,21.9,16.0,78,30.15,-9999.0,North,8.1,-,N/A,,Unknown,350,2013-03-05 23:56:00
7:56 PM,27.0,19.0,72,30.15,-9999.0,NE,3.5,-,N/A,,Unknown,40,2013-03-06 00:56:00
8:56 PM,28.9,19.9,69,30.14,-9999.0,NNW,6.9,-,N/A,,Unknown,330,2013-03-06 01:56:00
9:56 PM,30.0,23.0,75,30.14,-9999.0,NNW,8.1,-,N/A,,Unknown,340,2013-03-06 02:56:00
10:56 PM,32.0,25.0,75,30.14,-9999.0,North,11.5,-,N/A,,Unknown,10,2013-03-06 03:56:00
11:56 PM,30.9,25.0,79,30.15,-9999.0,North,8.1,-,N/A,,Unknown,10,2013-03-06 04:56:00